ONEWEB-0289 (49079 NORAD) Tracking and Keplerian Element Data

This shows tracking and keplerian element data for the satellite.

Feedback or suggestion? Click here.




ElementValue
Catalog49079
NameONEWEB-0289
Epoch Orbit559
Epoch Day262.16668981
Epoch Year2021
RAAN356.4307
Inclination87.4173
Eccentricity0.0022035
Argument of Perigee192.0266
Mean Anonmoly341.6289
Mean Motion15.1533233
Decay Rate-0.0090991
L11 49079U 21075E 21262.16668981 -.00909910 00000-0 -51763-1 0 9995
L22 49079 87.4173 356.4307 0022035 192.0266 341.6289 15.15332330 5595

Live tracking and technical data element details for ONEWEB-0289 (NORAD 49079). ONEWEB-0289 can be tracked NOW for your location showing map with azimuth and elevation plus other details from your city location.

Track the satellite on the map from your city or location and see movement details for azimuth, elevation, latitude, longitude, range, height, and movement on the map or in text.







IsCatalogInMostPopularTable: catalog: 49079, numindb: 3
Update: records affected: 1



GetName: 49079 ONEWEB-0289

Hit Count: updated at: Fri, 24 Sep 2021 18:14:53 GMT